Startseite
Über Mich
AHP4
Galerie
Sehschlangen
Tourenbuch
Bookmarks
Elektronik
Bewertung
Geschichten
[Tagesmessung] [Jahreswerte] [Information]

Messwerte vom 01.02.2022

Die letzten Messwerte von 23:58:48 Uhr:
KategorieMesswert
Temperatur [°C]5
Luftdruck [mBar]988
Sonneneinstrahlung0
Wind [km/h]8 aus West
Niederschlag [l/m²]0
rel.Luftfeucht.96.6%
CO2 [ppm]422

Diagramme
Messwerte vom 01.02.2022
Tagesaggregation
KategorieMinimumMaximumSchnittSumme
Temperatur [°C]163.2104
Luftdruck [mBar]984999992.2958
Sonneneinstrahlung22061.7250
Wind [km/h]29
rF [%]89.696.696.33
Niederschlag [l/m²]6.18
CO2 [ppm]404808590.4
Einordnung alsKalter Tag

Messungen an benachbarten Tagen: Zur Jahresaggregation 2022
Tabelle aller Messwerte
UhrzeitTemperatur [°C]Luftdruck [mBar]SonneWind [km/h]RichtungRegen [l/m²]rF [%]CO2 [ppm]
00:01:46 1 997 0 2 SW 0 96.6 527
00:04:45 1 998 0 1 S 0 96.6 521
00:07:47 1 998 0 6 SW 0 96.6 516
00:10:45 1 998 0 2 W 0 96.6 512
00:13:46 1 998 0 1 O 0 96.6 509
00:16:45 1 998 0 4 SW 0 96.6 506
00:19:48 1 998 0 3 NW 0 96.6 493
00:22:44 1 997 0 2 O 0 96.6 498
00:25:47 1 998 0 0 NW 0 96.6 509
00:28:46 1 998 0 1 SW 0 96.6 507
00:31:47 1 998 0 2 W 0 96.6 509
00:34:47 1 998 0 2 S 0 96.6 512
00:37:46 1 998 0 2 SW 0 96.6 515
00:40:51 1 998 0 2 W 0 96.6 507
00:43:47 1 998 0 4 W 0 96.6 504
00:46:47 1 998 0 2 SW 0 96.6 504
00:49:47 1 998 0 2 W 0 96.6 503
00:52:47 1 998 0 1 SW 0 96.6 507
00:55:47 1 998 0 1 W 0 96.6 513
00:58:47 1 998 0 2 SW 0 96.6 506
01:01:48 1 998 0 2 SW 0 96.6 504
01:04:46 1 998 0 1 S 0 96.6 504
01:07:48 1 998 0 4 SW 0 96.6 515
01:10:47 1 998 0 4 W 0 96.6 510
01:13:49 1 998 0 0 SW 0 96.6 506
01:16:46 1 998 0 2 W 0 96.6 509
01:19:47 1 998 0 4 SW 0 96.6 515
01:22:46 1 998 0 1 W 0 96.6 513
01:25:46 1 998 0 4 SW 0 96.6 509
01:28:46 1 998 0 3 W 0 96.6 506
01:31:48 1 998 0 1 NW 0 96.6 501
01:34:46 1 998 0 0 SW 0 96.6 516
01:37:44 1 998 0 4 W 0 96.6 514
01:40:46 1 998 0 2 NW 0 96.6 512
01:43:44 1 998 0 1 SW 0 96.6 501
01:46:48 1 998 0 1 SW 0 96.6 497
01:49:46 1 998 0 2 S 0 96.6 500
01:52:46 1 998 0 1 W 0 96.6 490
01:55:48 1 998 0 2 SW 0 96.6 504
01:58:47 1 998 0 6 SW 0 96.6 505
02:01:48 1 998 0 3 S 0 96.6 503
02:04:48 1 998 0 2 SO 0 96.6 502
02:07:48 1 998 0 3 S 0 96.6 505
02:10:45 1 998 0 0 W 0 96.6 506
02:13:47 1 998 0 1 SW 0 96.6 506
02:16:46 1 998 0 2 SW 0 96.6 502
02:19:47 1 998 0 4 SW 0 96.6 506
02:22:48 1 998 0 2 NW 0 96.6 518
02:25:48 1 998 0 2 SW 0 96.6 530
02:28:46 1 998 0 2 W 0 96.6 518
02:31:47 1 998 0 0 N 0 96.6 513
02:34:48 1 998 0 3 SW 0 96.6 507
02:37:44 1 998 0 1 W 0 96.6 514
02:40:48 1 998 0 1 W 0 96.6 512
02:43:45 1 998 0 3 W 0 96.6 518
02:46:47 1 998 0 0 NW 0 96.6 515
02:49:46 1 998 0 0 S 0 96.6 521
02:52:47 1 998 0 1 S 0 96.6 509
02:55:50 1 999 0 0 NW 0 96.6 513
02:58:46 1 998 0 0 N 0 96.6 512
03:01:49 1 998 0 3 SW 0 96.6 507
03:04:45 1 998 0 4 W 0 96.6 500
03:07:47 1 998 0 1 SW 0 96.6 509
03:10:46 1 998 0 0 S 0 96.6 509
03:13:47 1 998 0 1 S 0 96.6 513
03:16:47 1 998 0 1 SO 0 96.6 504
03:19:46 1 998 0 3 SW 0 96.6 504
03:22:46 1 998 0 0 W 0 96.6 507
03:25:46 1 998 0 0 SO 0 96.6 513
03:28:47 1 997 0 0 SO 0 96.6 518
03:31:49 1 998 0 0 S 0 96.6 512
03:34:45 1 998 0 1 O 0 96.6 512
03:37:48 1 998 0 6 NO 0 96.6 507
03:40:46 1 997 0 5 W 0 96.6 512
03:43:47 1 998 0 7 SO 0 96.6 512
03:46:49 1 998 0 8 SO 0 96.6 509
03:49:47 1 998 0 6 SW 0 96.6 507
03:52:45 1 997 0 2 SW 0 96.6 509
03:55:47 1 998 0 3 W 0 96.6 512
03:58:46 1 997 0 2 S 0 96.6 512
04:01:48 1 998 0 4 W 0 96.6 513
04:04:47 1 997 0 5 SW 0 96.6 513
04:07:46 1 998 0 2 W 0 96.6 513
04:10:47 1 997 0 7 SW 0 96.6 507
04:13:45 1 998 0 2 W 0 96.6 504
04:16:47 1 998 0 5 SW 0 96.6 506
04:19:47 1 998 0 4 S 0 96.6 504
04:22:48 1 998 0 6 SW 0 96.6 507
04:25:47 1 997 0 3 NW 0 96.6 506
04:28:46 1 998 0 1 SO 0 96.6 510
04:31:46 1 998 0 3 NW 0 96.6 512
04:34:48 1 998 0 6 SW 0 96.6 509
04:37:46 1 998 0 4 SW 0 96.6 500
04:40:48 1 998 0 1 NW 0 96.6 492
04:43:45 1 998 0 1 W 0 96.6 492
04:46:44 2 998 0 4 N 0 96.6 497
04:49:47 2 998 0 3 SW 0 96.6 500
04:52:48 2 998 0 1 W 0 96.6 504
04:55:46 2 998 0 7 W 0 96.6 506
04:58:46 2 998 0 3 W 0 96.6 500
05:01:46 2 998 0 2 W 0 96.6 504
05:04:45 2 998 0 7 W 0 96.6 504
05:07:48 2 998 0 9 NW 0 96.6 509
05:10:46 2 998 0 9 W 0 96.6 506
05:13:45 2 998 0 8 W 0 96.6 500
05:16:46 2 998 0 1 W 0 96.6 506
05:19:47 2 998 0 3 S 0 96.6 503
05:22:47 2 998 0 3 SW 0 96.6 504
05:25:47 2 998 0 10 W 0 96.6 501
05:28:46 2 998 0 10 SW 0 96.6 504
05:31:46 2 997 0 2 W 0 96.6 501
05:34:46 2 998 0 2 W 0 96.6 495
05:37:45 2 998 0 2 S 0 96.6 496
05:40:48 2 998 0 2 SW 0 96.6 498
05:43:48 2 998 0 1 SW 0 96.6 495
05:46:46 1 998 0 4 W 0 96.6 501
05:49:47 1 998 0 1 SW 0 96.6 509
05:52:46 1 998 0 4 NW 0 96.6 510
05:55:47 1 998 0 1 NW 0 96.6 512
05:58:48 1 998 0 3 NW 0 96.6 504
06:01:47 1 998 0 3 SW 0 96.6 506
06:04:43 1 998 0 0 0 96.6 504
06:07:47 1 998 0 1 SW 0 96.6 500
06:10:46 1 998 0 4 W 0 96.6 494
06:13:46 1 998 0 5 W 0 96.6 492
06:16:48 1 998 0 4 SW 0 96.6 489
06:19:46 1 998 0 4 W 0 96.6 489
06:22:48 1 998 0 6 NW 0 96.6 492
06:25:46 1 998 0 7 W 0 96.6 503
06:28:46 1 998 0 4 SO 0 96.6 513
06:31:46 1 998 0 6 NW 0 96.6 501
06:34:47 1 998 0 5 SW 0 96.6 495
06:37:47 1 998 0 3 NW 0 96.6 495
06:40:44 1 998 0 5 W 0 96.6 492
06:43:46 1 998 0 9 S 0 96.6 495
06:46:46 1 998 0 4 SW 0 96.6 492
06:49:48 1 998 0 6 NW 0 96.6 498
06:52:44 1 998 0 6 W 0 96.6 506
06:55:45 1 998 0 5 W 0 96.6 506
06:58:45 1 998 0 7 S 0 96.6 512
07:01:46 1 998 0 5 W 0 96.6 512
07:04:46 1 998 0 4 W 0 96.6 504
07:07:46 1 998 0 6 S 0 96.6 492
07:10:48 1 998 0 6 SW 0 96.6 480
07:13:47 1 998 0 7 W 0 96.6 483
07:16:46 1 998 0 3 SW 0 96.6 492
07:19:45 1 998 0 5 SO 0 96.6 512
07:22:47 1 998 0 7 W 0 96.6 524
07:25:46 2 998 0 5 S 0 96.6 527
07:28:46 2 998 0 7 W 0 96.6 535
07:31:47 2 998 0 4 SW 0 96.6 545
07:34:46 2 997 0 6 S 0 96.6 554
07:37:44 2 998 3 1 W 0 96.6 559
07:40:47 2 998 6 3 S 0 96.6 566
07:43:46 2 998 8 6 W 0 96.6 563
07:46:46 2 998 13 7 SW 0 96.6 556
07:49:46 2 998 19 6 SO 0 96.6 544
07:52:49 2 998 27 16 NW 0 96.6 545
07:55:49 2 998 33 2 NO 0 96.6 540
07:58:47 2 998 42 7 SW 0 96.6 550
08:01:49 2 998 49 8 S 0 96.6 549
08:04:47 2 998 55 5 S 0 96.6 559
08:07:47 2 998 62 6 SO 0 96.6 568
08:10:48 2 998 73 9 NW 0 96.6 568
08:13:47 2 998 76 3 S 0 96.6 569
08:16:47 2 998 78 2 S 0 96.6 572
08:19:46 2 998 94 4 SW 0 96.6 574
08:22:49 2 998 98 0 N 0 96.6 583
08:25:46 2 998 94 0 W 0 96.6 582
08:28:50 2 998 99 4 SW 0 96.6 583
08:31:49 2 998 95 2 NW 0 96.6 586
08:34:50 2 998 98 10 SW 0 96.6 587
08:37:47 2 998 114 6 SW 0 96.6 586
08:40:48 2 998 123 4 O 0 96.6 581
08:43:50 2 997 137 9 SW 0 96.6 580
08:46:46 2 997 148 2 S 0 96.6 591
08:49:50 2 997 146 0 W 0 96.6 594
08:52:48 2 997 153 2 O 0 96.6 612
08:55:48 2 998 158 1 NO 0 96.6 618
08:58:50 2 997 158 6 W 0 96.6 619
09:01:48 2 998 159 1 SO 0 96.6 618
09:04:49 2 998 159 1 SW 0 96.6 624
09:07:52 2 998 159 2 SW 0 96.6 614
09:10:47 2 997 164 2 SO 0 96.6 621
09:13:50 2 997 167 3 W 0 96.6 626
09:16:49 2 997 167 0 NW 0 96.6 629
09:19:47 2 996 171 1 NO 0 96.6 635
09:22:47 2 997 178 1 S 0 96.6 630
09:25:47 2 997 177 4 S 0 96.6 632
09:28:49 2 996 183 1 W 0 96.6 634
09:31:48 2 996 184 3 S 0 96.6 640
09:34:46 2 997 185 0 O 0 96.6 639
09:37:48 2 996 181 1 S 0 96.6 632
09:40:47 2 996 174 3 O 0 96.6 633
09:43:48 2 996 175 3 SW 0 96.6 634
09:46:51 2 996 177 12 SW 0 96.6 625
09:49:47 2 995 193 7 W 0 96.6 631
09:52:49 2 996 182 4 SW 0 96.6 632
09:55:48 2 996 190 10 O 0 96.6 645
09:58:46 3 996 193 6 SW 0.2575 96.6 644
10:01:49 3 996 200 6 SW 0 96.6 645
10:04:48 3 995 204 2 NO 0 96.6 641
10:07:48 3 995 206 9 SW 0 96.6 630
10:10:49 3 995 204 4 S 0 96.6 633
10:13:48 3 995 204 10 O 0 96.6 636
10:16:49 3 995 203 1 NW 0 96.6 635
10:19:47 3 995 202 11 SO 0 96.6 629
10:22:48 3 995 199 1 W 0 96.6 632
10:25:45 3 995 198 5 S 0 96.6 633
10:28:46 3 995 208 7 0 96.6 632
10:31:48 3 995 210 8 S 0 96.6 635
10:34:47 3 995 209 3 S 0 96.6 645
10:37:47 3 995 211 3 S 0 96.6 647
10:40:46 4 995 214 4 N 0 96.6 653
10:43:48 4 995 210 18 SW 0 96.6 652
10:46:47 4 995 205 4 S 0 96.6 659
10:49:51 4 995 203 3 NW 0 96.6 663
10:52:47 4 995 204 9 SW 0 96.4 668
10:55:50 4 995 211 2 SO 0 95.5 670
10:58:49 4 995 211 3 SO 0 95.6 680
11:01:43 4 995 212 3 O 0 95.1 675
11:04:48 4 995 213 5 S 0 95.1 688
11:07:46 4 995 216 5 O 0 94.8 700
11:10:46 4 995 216 1 S 0 94.4 708
11:13:45 5 995 217 13 S 0 95.1 706
11:16:45 5 994 217 3 O 0 94.2 699
11:19:46 5 994 216 7 O 0 92.1 710
11:22:48 5 995 220 6 SW 0 91.8 713
11:25:46 5 994 219 2 O 0 91.9 715
11:28:47 5 994 214 9 NO 0 91.2 715
11:31:49 5 995 206 10 SO 0 90 707
11:34:48 5 994 201 3 SW 0 89.6 711
11:37:47 5 994 212 1 SW 0 90.1 713
11:40:46 5 994 210 3 N 0 90.8 718
11:43:46 5 994 212 5 SO 0 91.3 703
11:46:48 4 994 215 10 SW 0 90.6 700
11:49:48 4 994 217 4 SW 0 90.5 700
11:52:45 5 993 210 17 W 0 91.5 703
11:55:47 5 994 211 6 SO 0 91 709
11:58:46 4 994 210 19 S 0 90.3 706
12:01:49 4 993 209 2 SW 0 91 715
12:04:46 4 993 207 6 NO 0 91.6 714
12:07:47 4 992 202 6 SO 0 91.5 672
12:10:48 4 993 197 1 W 0 92.2 688
12:13:48 4 993 197 7 SW 0 92.5 686
12:16:49 4 992 198 5 SO 0 92.8 697
12:19:47 4 992 201 3 NO 0 93.1 697
12:22:50 4 992 196 2 S 0 94.8 694
12:25:48 4 991 192 11 S 0 95.2 687
12:28:52 4 992 200 2 SO 0 96.2 688
12:31:47 4 991 194 3 SW 0 96.6 693
12:34:48 3 991 188 3 W 0 96.6 702
12:37:48 3 991 186 4 SO 0 96.6 708
12:40:49 3 991 187 2 SW 0 96.6 715
12:43:47 3 991 185 2 SW 0 96.6 705
12:46:48 3 991 185 2 SW 0 96.6 703
12:49:47 3 991 181 4 SO 0 96.6 699
12:52:47 3 991 184 6 0 96.6 703
12:55:48 3 991 194 7 W 0 96.6 713
12:58:49 3 991 202 2 S 0 96.6 712
13:01:47 3 991 205 11 O 0 96.6 712
13:04:47 3 991 195 6 S 0 96.6 706
13:07:46 3 991 173 6 SW 0 96.6 712
13:10:49 3 991 191 5 SW 0 96.6 718
13:13:49 3 991 193 15 NW 0.2575 96.6 707
13:16:46 3 991 183 4 SW 0 96.6 703
13:19:51 3 991 190 17 SW 0 96.6 709
13:22:46 3 991 194 6 W 0 96.6 713
13:25:49 3 990 192 9 SW 0 96.6 717
13:28:46 3 990 197 19 SO 0 96.6 717
13:31:48 3 989 193 5 W 0 96.6 724
13:34:48 3 990 166 2 S 0 96.6 718
13:37:51 3 989 181 10 S 0 96.6 723
13:40:47 3 989 182 7 S 0 96.6 731
13:43:45 3 989 184 15 S 0 96.6 737
13:46:47 3 989 187 6 W 0 96.6 738
13:49:48 3 989 188 10 NO 0 96.6 735
13:52:46 3 988 185 5 S 0 96.6 730
13:55:48 3 988 188 2 SO 0 96.6 732
13:58:50 3 988 174 12 SW 0 96.6 729
14:01:46 3 988 173 9 W 0 96.6 731
14:04:48 3 988 172 4 W 0 96.6 735
14:07:46 3 987 172 7 S 0.2575 96.6 743
14:10:48 3 987 180 5 SW 0 96.6 741
14:13:46 3 987 171 10 0 96.6 743
14:16:47 3 987 177 3 W 0 96.6 746
14:19:46 3 988 188 4 O 0 96.6 746
14:22:47 3 988 169 3 S 0 96.6 751
14:25:46 4 987 165 4 SW 0 96.6 753
14:28:49 4 987 148 3 S 0 96.6 762
14:31:46 4 988 168 7 SW 0 96.6 766
14:34:47 4 988 151 7 SW 0.2575 96.6 776
14:37:47 4 987 148 9 SO 0 96.6 761
14:40:48 4 988 164 12 S 0.2575 96.6 757
14:43:47 4 987 168 7 S 0 96.6 754
14:46:46 4 987 169 9 W 0 96.6 767
14:49:47 4 987 163 8 O 0 96.6 776
14:52:47 4 987 151 8 SO 0.2575 96.6 771
14:55:48 4 987 153 4 W 0 96.6 771
14:58:48 4 987 168 3 SO 0.2575 96.6 773
15:01:48 4 987 150 7 SW 0 96.6 782
15:04:48 4 987 166 4 W 0 96.6 785
15:07:47 4 987 153 4 W 0 96.6 794
15:10:46 4 987 147 9 SO 0 96.6 779
15:13:50 4 987 137 2 NW 0 96.6 781
15:16:48 4 987 138 5 SW 0 96.6 782
15:19:48 4 987 136 2 SW 0.2575 96.6 783
15:22:47 4 987 148 14 SW 0 96.6 787
15:25:49 4 987 146 3 S 0 96.6 795
15:28:48 4 987 129 10 SW 0 96.6 800
15:31:49 4 987 109 8 NW 0 96.6 796
15:34:48 4 987 108 7 NW 0 96.6 788
15:37:47 4 987 130 5 W 0 96.6 789
15:40:49 4 987 131 13 S 0 96.6 782
15:43:49 4 987 134 5 W 0 96.6 782
15:46:49 4 987 153 3 SO 0 96.6 785
15:49:46 4 987 130 3 S 0 96.6 794
15:52:47 4 987 134 12 W 0 96.6 782
15:55:48 5 987 118 23 S 0 96.6 786
15:58:47 4 987 121 7 W 0 96.6 787
16:01:52 5 987 122 12 SW 0 96.6 791
16:04:49 5 987 119 5 S 0 96.6 791
16:07:48 5 987 116 4 NW 0 96.6 785
16:10:49 5 986 102 8 SW 0 96.6 790
16:13:48 5 987 118 11 S 0 96.6 801
16:16:46 5 987 106 18 W 0 96.6 805
16:19:46 5 987 112 4 SO 0 96.6 807
16:22:48 5 986 102 8 SW 0 96.6 802
16:25:48 5 986 93 10 W 0 96.6 799
16:28:46 5 986 93 9 N 0 96.6 800
16:31:46 5 985 73 3 S 0 96.6 802
16:34:49 5 986 56 5 SW 0 96.6 808
16:37:47 5 986 63 3 SW 0 96.6 805
16:40:47 5 986 56 7 SO 0 96.6 803
16:43:46 5 986 78 0 S 0 96.6 794
16:46:50 5 986 39 11 SW 0 96.6 785
16:49:47 5 987 42 9 NW 0.2575 96.6 779
16:52:46 5 986 51 10 SW 0 96.6 772
16:55:47 5 986 44 7 NW 0 96.6 785
16:58:47 5 986 52 9 SW 0 96.6 785
17:01:49 5 986 45 9 W 0 96.6 785
17:04:49 5 986 42 12 NW 0 96.6 788
17:07:48 5 985 37 10 NW 0 96.6 790
17:10:47 5 987 11 13 NW 0 96.6 787
17:13:47 5 986 8 19 S 0 96.6 776
17:16:50 5 986 10 12 NW 0 96.6 779
17:19:43 5 986 3 9 S 0 96.6 781
17:22:47 5 986 5 6 SW 0 96.6 787
17:25:48 6 986 7 5 SW 0 96.6 789
17:28:46 6 986 4 15 W 0 96.6 776
17:31:45 6 986 0 9 SW 0 96.6 770
17:34:46 6 985 0 12 W 0 96.6 761
17:37:47 6 986 0 5 SW 0 96.6 762
17:40:46 6 985 0 17 S 0 96.6 757
17:43:46 6 985 0 6 NW 0 96.6 752
17:46:47 6 985 0 6 NO 0 96.6 736
17:49:48 6 985 0 22 W 0 96.6 729
17:52:45 6 984 0 13 0 96.6 721
17:55:46 6 986 0 17 SW 0 96.6 717
17:58:49 6 985 0 10 SW 0 96.6 702
18:01:47 6 985 0 8 SW 0 96.6 705
18:04:46 6 985 0 10 W 0 96.6 700
18:07:47 6 985 0 8 S 0 96.6 702
18:10:45 6 986 0 27 W 0 96.6 688
18:13:46 6 985 0 7 SW 0 96.6 693
18:16:47 6 985 0 15 S 0 96.6 690
18:19:48 6 986 0 9 W 0 96.6 683
18:22:46 6 986 0 14 W 0 96.6 691
18:25:46 6 987 0 9 SW 0 96.6 694
18:28:46 6 986 0 7 SO 0 96.6 677
18:31:46 6 985 0 15 SW 0 96.6 653
18:34:51 6 985 0 15 NW 0 96.6 632
18:37:46 6 986 0 15 N 0 96.6 622
18:40:46 6 986 0 11 SW 0.2575 96.6 615
18:43:49 6 986 0 11 NW 0.2575 96.6 612
18:46:47 5 986 0 21 NW 0.2575 96.6 603
18:49:48 5 987 0 29 NW 0.2575 96.6 589
18:52:46 5 986 0 20 N 0.2575 96.6 591
18:55:49 5 986 0 18 W 0.2575 96.6 594
18:58:47 5 986 0 14 NO 0 96.6 574
19:01:49 5 986 0 27 W 0.2575 96.6 538
19:04:46 5 986 0 9 NW 0.2575 96.6 524
19:07:47 5 987 0 15 W 0 96.6 525
19:10:48 5 987 0 10 NO 0 96.6 538
19:13:46 5 986 0 16 N 0.2575 96.6 550
19:16:47 5 985 0 15 NW 0 96.6 553
19:19:48 5 987 0 20 S 0.2575 96.6 550
19:22:46 5 987 0 22 W 0 96.6 518
19:25:48 5 986 0 17 W 0 96.6 474
19:28:46 5 986 0 21 W 0 96.6 469
19:31:46 5 987 0 11 NW 0.2575 96.6 477
19:34:46 5 986 0 13 NW 0 96.6 474
19:37:47 5 987 0 20 NW 0 96.6 477
19:40:45 5 987 0 14 N 0 96.6 501
19:43:48 5 987 0 9 NW 0 96.6 527
19:46:46 5 987 0 9 W 0 96.6 532
19:49:48 5 987 0 14 W 0 96.6 539
19:52:47 5 986 0 4 SW 0 96.6 546
19:55:45 5 986 0 3 SO 0 96.6 539
19:58:46 5 987 0 9 NW 0 96.6 544
20:01:47 5 987 0 11 W 0 96.6 544
20:04:47 5 986 0 10 NW 0 96.6 546
20:07:47 5 986 0 2 W 0 96.6 550
20:10:49 5 986 0 9 SW 0 96.6 557
20:13:48 5 987 0 13 NW 0 96.6 550
20:16:48 5 986 0 9 NW 0 96.6 542
20:19:46 5 986 0 12 W 0 96.6 527
20:22:48 5 987 0 16 W 0 96.6 512
20:25:47 5 986 0 10 W 0 96.6 519
20:28:47 6 987 0 7 SO 0 96.6 516
20:31:49 6 987 0 10 SW 0 96.6 519
20:34:47 6 987 0 10 SW 0 96.6 518
20:37:48 6 986 0 8 S 0 96.6 524
20:40:46 6 987 0 8 SW 0 96.6 523
20:43:49 5 987 0 18 SO 0 96.6 522
20:46:45 5 986 0 8 W 0 96.6 518
20:49:50 5 987 0 6 SW 0 96.6 517
20:52:48 5 987 0 10 SW 0 96.6 507
20:55:47 5 987 0 5 W 0 96.6 514
20:58:46 5 987 0 15 W 0 96.6 512
21:01:48 5 987 0 8 W 0 96.6 522
21:04:48 5 987 0 11 NW 0 96.6 518
21:07:45 5 987 0 14 O 0 96.6 521
21:10:46 5 987 0 7 SW 0 96.6 518
21:13:47 5 987 0 7 W 0 96.6 524
21:16:47 5 987 0 10 SW 0 96.6 521
21:19:46 5 987 0 3 NO 0 96.6 515
21:22:46 5 987 0 20 NW 0 96.6 512
21:25:47 5 986 0 10 SW 0 96.6 519
21:28:45 5 986 0 3 W 0 96.6 451
21:31:48 5 987 0 14 W 0 96.6 445
21:34:51 5 987 0 14 NW 0 96.6 442
21:37:48 5 987 0 15 W 0 96.6 439
21:40:48 5 987 0 16 SW 0 96.6 439
21:43:47 5 987 0 13 W 0 96.6 437
21:46:49 5 986 0 17 SW 0 96.6 436
21:49:49 5 987 0 14 SW 0 96.6 425
21:52:45 5 987 0 6 O 0 96.6 427
21:55:46 5 987 0 11 W 0 96.6 417
21:58:49 5 987 0 16 SW 0 96.6 419
22:01:46 5 987 0 8 O 0.2575 96.6 416
22:04:46 5 988 0 7 N 0 96.6 421
22:07:46 5 987 0 25 W 0 96.6 404
22:10:46 5 987 0 7 N 0 96.6 406
22:13:47 5 987 0 12 N 0.2575 96.6 404
22:16:48 4 987 0 10 NW 0 96.6 410
22:19:47 4 987 0 8 S 0 96.6 424
22:22:46 4 987 0 5 W 0 96.6 425
22:25:49 4 987 0 10 W 0.2575 96.6 421
22:28:45 4 987 0 9 N 0 96.6 413
22:31:47 4 987 0 12 W 0 96.6 416
22:34:46 4 988 0 6 W 0 96.6 413
22:37:45 4 987 0 9 S 0 96.6 412
22:40:47 5 988 0 6 W 0 96.6 420
22:43:45 5 987 0 7 S 0 96.6 424
22:46:47 5 987 0 9 SW 0 96.6 427
22:49:47 5 987 0 9 NW 0 96.6 430
22:52:50 5 988 0 16 NW 0 96.6 434
22:55:47 5 987 0 18 W 0 96.6 427
22:58:51 5 988 0 18 NW 0 96.6 404
23:01:46 5 987 0 6 NW 0.2575 96.6 407
23:04:47 5 987 0 6 W 0 96.6 407
23:07:47 5 987 0 9 SW 0 96.6 419
23:10:50 5 987 0 11 SW 0 96.6 428
23:13:46 5 987 0 5 W 0 96.6 433
23:16:45 5 987 0 21 SW 0 96.6 430
23:19:48 5 987 0 13 SW 0 96.6 433
23:22:47 5 987 0 8 W 0 96.6 425
23:25:48 5 987 0 5 W 0 96.6 424
23:28:48 5 988 0 15 SW 0 96.6 427
23:31:48 5 987 0 4 SW 0 96.6 425
23:34:48 5 988 0 5 NW 0 96.6 436
23:37:47 5 987 0 6 SW 0 96.6 442
23:40:46 5 987 0 6 W 0 96.6 445
23:43:47 5 987 0 12 S 0 96.6 427
23:46:46 5 988 0 5 W 0 96.6 419
23:49:47 5 988 0 18 W 0 96.6 418
23:52:47 5 988 0 15 W 0 96.6 421
23:55:48 5 987 0 5 SW 0 96.6 425
23:58:48 5 988 0 8 W 0 96.6 422

Letzte Änderung : 04-Jan-2022
Copyright Jens Köhler, Wolfsburg, Obere Dorfstraße 10d